Regional Weather Roundup
Issued by NWS Green Bay, WI

Home | Current Version | Previous Version | Graphics & Text | Print | Product List | Glossary Off
Versions: 1 2 3 4 5 6 7 8 9 10 11 12 13 14 15 16 17 18 19 20 21 22 23 24 25 26 27 28 29 30 31 32 33 34 35 36 37 38 39 40 41 42 43 44 45 46 47 48 49 50

000
ASUS43 KGRB 230911
RWRGRB

NORTH-CENTRAL AND NORTHEAST WISCONSIN REGIONAL WEATHER ROUNDUP
NATIONAL WEATHER SERVICE GREEN BAY WI
400 AM CDT TUE AUG 23 2016

WIZ005-009-010>012-018-019-231000-
NORTH CENTRAL WISCONSIN

CITY           SKY/WX    TMP DP  RH WIND       PRES   REMARKS
IRONWOOD       CLEAR     68  60  75 SW15G23   29.98R
MANITOWISH WTR CLEAR     62  62 100 S5        30.03S
ARBOR VITAE    CLEAR     62  60  93 S6        30.05S
EAGLE RIVER    CLEAR     62  60  96 S5        30.06S
LAND O LAKES   CLEAR     62  60  94 S6        30.06S
RHINELANDER    CLEAR     63  61  93 S8        30.07S
PHILLIPS       CLEAR     62  60  94 S7        30.03S
ANTIGO         CLEAR     58  57  97 CALM      30.09F
TOMAHAWK       CLOUDY    58  57  95 CALM      30.07R
MERRILL        CLOUDY    63  61  93 S7        30.07S
$$

WIZ013-073-231000-
NORTHEAST WISCONSIN

CITY           SKY/WX    TMP DP  RH WIND       PRES   REMARKS
IRON MOUNTAIN  CLOUDY    62  58  86 S7        30.06S
MARINETTE      CLOUDY   N/A N/A N/A S8        30.09F
OCONTO         PTCLDY    66  59  78 S6        30.09F
$$

WIZ017-030-035>037-045-231000-
CENTRAL WISCONSIN

CITY           SKY/WX    TMP DP  RH WIND       PRES   REMARKS
MEDFORD        CLOUDY    62  62 100 S9        30.05F
WAUSAU         CLOUDY    64  59  83 S7        30.06S
MOSINEE        CLOUDY    59  59 100 S7        30.09S
MARSHFIELD     CLOUDY    61  57  87 S3        30.07R
WISC RAPIDS    CLOUDY    62  60  93 S6        30.09S
STEVENS POINT  CLOUDY    60  58  92 S7        30.09S
WAUPACA        CLEAR     61  60  96 CALM      30.10S
SHAWANO        CLEAR     62  58  86 CALM      30.10S
CLINTONVILLE   CLEAR     59  55  88 CALM      30.09S
WAUTOMA        CLOUDY    58  57  97 CALM      30.11R
$$

WIZ038-039-048-051-231000-
FOX VALLEY

CITY           SKY/WX    TMP DP  RH WIND       PRES   REMARKS
NWS GREEN BAY  CLEAR     61  59  93 S7        30.11S
APPLETON       CLEAR     63  54  72 S10       30.09S
OSHKOSH        CLEAR     60  56  86 S7        30.11S
FOND DU LAC    CLEAR     66  56  70 S8        30.12R
$$

WIZ022-050-052-231000-
EAST CENTRAL WISCONSIN

CITY           SKY/WX    TMP DP  RH WIND       PRES   REMARKS
EPHRAIM        LGT RAIN  64  60  90 S8        30.09F
WASHINGTON ISL NOT AVBL
STURGEON BAY   CLOUDY    66  58  75 S10       30.12F
MANITOWOC      CLEAR     61  56  83 MISG      30.14S
SHEBOYGAN      CLEAR     58  55  90 CALM      30.14R
$$

LMZ563-521-522-541>543-231000-
LAKESHORE

STATION/POSITION TIME  TEMP    WIND        PRES    VSBY  WAVE
                       AIR SEA DIR/SP/G                  HT/PER
                 (UTC) (F)     (DEG/KT/KT) (MB)    (MI)  (FT/S)
SHEBOYGAN LKSHOR 0900   64     170/ 10/ 10 1020.8R
KEWAUNEE LKSHORE 0800   65     180/  5/  7 1019.9R
NORTHPORT PIER   0800   68     180/  4/ 12 1018.6
N MID LAKE BUOY  0850   72 71  210/ 23/ 29 1017.3F         5/ 6
S GREEN BAY BUOY 0830   69 73  160/ 14/ 17 1019.0F
CHAMBERS ISLAND  0800   68     160/  7/ 12 1019.0F
MENOMINEE LKSHOR 0800   69     170/ 11/ 14 1018.2F
$$




USA.gov is the U.S. government's official web portal to all federal, state and local government web resources and services.